Location: Binningen
(47.7924°N, 8.7261°E)
Time: 18:33:34
(UTC+00:00)

SPOT 3 Rocket - Pass Details

Date: 17 May 2021
Orbit: 779 x 794 km, 98.7° (Epoch: 21 June)

Event Time Altitude Azimuth Distance (km) Brightness Sun altitude
Exits shadow 20:12:40 - 172° (S) 2,576 5.7 -10.5°
Reaches altitude 10° 20:13:17 10° 173° (S) 2,330 5.5 -10.6°
Maximum altitude 20:18:24 70° 257° (WSW) 832 3.8 -11.2°
Drops below altitude 10° 20:23:34 10° 341° (NNW) 2,344 7.2 -11.8°
Sets 20:25:54 0° 344° (NNW) 3,277 8.0 -12.0°
